Riverton, WY

7:14 PM MDT on June 26, 2017 (GMT -0600)
Riverton Regional

Weather History for KRIW - March, 2012

Change the Weather History Date:

Saturday, March 3, 2012

  Actual Average Record
Temperature  
Mean Temperature 36 °F 30 °F  
Max Temperature 47 °F 42 °F 62 °F (2009)
Min Temperature 24 °F 19 °F 1 °F (2015)
Degree Days  
Heating Degree Days 29 34  
Month to date heating degree days 113 104  
Since 1 July heating degree days 5499 5958  
Cooling Degree Days 0 0  
Month to date cooling degree days 0 0  
Year to date cooling degree days 0 0  
Moisture  
Dew Point 15 °F    
Average Humidity 43    
Maximum Humidity 55    
Minimum Humidity 31    
Precipitation  
Precipitation 0.00 in 0.01 in 0.12 in (2015)
Month to date precipitation 0.00 0.03  
Year to date precipitation 0.47 0.54  
Snow  
Snow 0.00 in - - ()
Month to date snowfall 0.0  
Since 1 July snowfall 25.1  
Snow Depth 1.00 in    
Sea Level Pressure  
Sea Level Pressure 30.02 in    
Wind  
Wind Speed 31 mph (WNW)    
Max Wind Speed 41 mph    
Max Gust Speed 61 mph    
Visibility 10 miles    
Events      
T = Trace of Precipitation, MM = Missing Value Source: NWS Daily Summary

Daily Weather History Graph

Daily Weather History Graph

Search for Another Location

Airport or City:

Trip Planner

Search our weather history database for the weather conditions in past years. The results will help you decide how hot, cold, wet, or windy it might be!

Date:

Astronomy

Mar. 03, 2012 Rise Set
Actual Time 6:45 AM MST 6:06 PM MST
Civil Twilight 6:17 AM MST 6:34 PM MST
Nautical Twilight 5:44 AM MST 7:07 PM MST
Astronomical Twilight 5:11 AM MST 7:40 PM MST
Moon 1:13 PM MST (3/3) 3:31 AM MST (3/3)
Length of Visible Light 12h 17m
Length of Day
11h 20m
Waxing Gibbous, 76% of the Moon is Illuminated
Mar 3
Waxing Gibbous
Mar 8
Full
Mar 14
Last Quarter
Mar 22
New
Mar 30
First Quarter

Hourly Weather History & Observations

Time (MST) Temp. Windchill Dew Point Humidity Pressure Visibility Wind Dir Wind Speed Gust Speed Precip Events Conditions
12:53 AM 27.0 °F 10.3 °F 5.0 °F 39% 30.06 in 10.0 mi NW 32.2 mph 47.2 mph N/A   Overcast
1:53 AM 26.1 °F 8.8 °F 6.1 °F 43% 30.05 in 10.0 mi WNW 33.4 mph 43.7 mph N/A   Scattered Clouds
2:53 AM 25.0 °F 8.6 °F 8.1 °F 49% 30.06 in 10.0 mi WNW 27.6 mph 39.1 mph N/A   Clear
3:53 AM 27.0 °F 10.8 °F 8.1 °F 45% 30.06 in 10.0 mi WNW 29.9 mph 41.4 mph N/A   Clear
4:53 AM 27.0 °F 11.6 °F 8.1 °F 45% 30.08 in 10.0 mi WNW 26.5 mph 39.1 mph N/A   Clear
5:53 AM 27.0 °F 11.0 °F 8.1 °F 45% 30.10 in 10.0 mi NW 28.8 mph 39.1 mph N/A   Clear
6:53 AM 24.1 °F 12.0 °F 10.0 °F 55% 30.14 in 10.0 mi West 13.8 mph 21.9 mph N/A   Clear
7:53 AM 30.9 °F 18.1 °F 10.9 °F 43% 30.11 in 10.0 mi WNW 21.9 mph 31.1 mph N/A   Clear
8:53 AM 34.0 °F 21.0 °F 12.0 °F 40% 30.09 in 10.0 mi WNW 26.5 mph 39.1 mph N/A   Clear
9:53 AM 37.9 °F 25.3 °F 12.9 °F 36% 30.07 in 10.0 mi NW 32.2 mph 39.1 mph N/A   Clear
10:53 AM 39.0 °F 26.1 °F 14.0 °F 36% 30.05 in 10.0 mi NW 36.8 mph 44.9 mph N/A   Clear
11:53 AM 42.1 °F 31.1 °F 16.0 °F 35% 30.02 in 10.0 mi NW 31.1 mph 47.2 mph N/A   Clear
12:53 PM 45.0 °F 35.8 °F 18.0 °F 34% 29.99 in 10.0 mi WNW 26.5 mph 51.8 mph N/A   Clear
1:53 PM 46.9 °F - 18.0 °F 32% 29.95 in 10.0 mi NW 33.4 mph 48.3 mph N/A   Clear
2:53 PM 46.0 °F 35.2 °F 19.0 °F 34% 29.94 in 10.0 mi WNW 41.4 mph 61.0 mph N/A   Clear
3:53 PM 44.1 °F 32.4 °F 19.0 °F 37% 29.95 in 10.0 mi WNW 41.4 mph 57.5 mph N/A   Clear
4:53 PM 42.1 °F 30.0 °F 19.9 °F 41% 29.96 in 10.0 mi WNW 39.1 mph 52.9 mph N/A   Clear
5:53 PM 43.0 °F 31.5 °F 19.9 °F 40% 29.97 in 10.0 mi WNW 36.8 mph 50.6 mph N/A   Clear
6:53 PM 42.1 °F 31.7 °F 19.9 °F 41% 29.99 in 10.0 mi WNW 27.6 mph 36.8 mph N/A   Clear
7:53 PM 42.1 °F 31.9 °F 21.0 °F 43% 29.97 in 10.0 mi WNW 26.5 mph 35.7 mph N/A   Clear
8:53 PM 42.1 °F 30.6 °F 21.0 °F 43% 29.96 in 10.0 mi WNW 34.5 mph 46.0 mph N/A   Clear
9:53 PM 42.1 °F 30.8 °F 19.9 °F 41% 29.96 in 10.0 mi WNW 33.4 mph 46.0 mph N/A   Clear
10:53 PM 42.1 °F 30.6 °F 19.9 °F 41% 29.94 in 10.0 mi WNW 34.5 mph 44.9 mph N/A   Clear
11:53 PM 43.0 °F 30.7 °F 19.0 °F 38% 29.92 in 10.0 mi WNW 43.7 mph 58.7 mph N/A   Clear